Regional Weather Roundup
Issued by NWS

Home | Current Version | Previous Version | Text Only | Print | Product List | Glossary Off
Versions: 1 2 3 4 5 6 7 8 9 10 11 12 13 14 15 16 17 18 19 20 21 22 23 24 25 26 27 28 29 30 31 32 33 34 35 36 37 38 39 40 41 42 43 44 45 46 47 48 49 50

000
ASUS43 KIND 030059
RWRIN

WEATHER ROUNDUP FOR INDIANA
NATIONAL WEATHER SERVICE INDIANAPOLIS IN
800 PM EST FRI DEC 02 2016

NOTE: "FAIR" INDICATES FEW OR NO CLOUDS BELOW 12,000 FEET WITH NO
SIGNIFICANT WEATHER AND/OR OBSTRUCTIONS TO VISIBILITY.

* - STATION DOES NOT REPORT WEATHER SUCH AS PRECIPITATION OR FOG.

+ - STATION NOT QUALITY CONTROLLED BY THE NATIONAL WEATHER SERVICE.
    USE DATA WITH CAUTION...ESPECIALLY DEWPOINT AND RELATIVE
    HUMIDITY OBSERVATIONS.

INZ001>003-010>013-019-020-030200-
NORTHWEST INDIANA

CITY           SKY/WX    TMP DP  RH WIND       PRES   REMARKS
GARY /AIRPORT/ CLOUDY    39  27  60 W12       30.28R
KNOX *+        CLOUDY    36  23  60 SW5       30.27R
LA PORTE +     CLOUDY    38  34  85 N8        30.27R
MONTICELLO +   CLOUDY    36  31  81 W5        30.28R

$$

LMZ046-743>745-030200-
SOUTHERN LAKE MICHIGAN

STATION/POSITION TIME  TEMP    WIND        PRES    WAVE
                       AIR SEA DIR/SP/G            HT
                 (UTC) (F)     (DEG/KT/KT) (MB)    (FT)
BURNS HARBOR     0015   40     300/ 13/ 19 1024.7R
MICHIGAN CITY    0010   38     320/ 17/ 19   N/A

$$

INZ004-005-014>016-021>024-030200-
NORTH CENTRAL INDIANA

CITY           SKY/WX    TMP DP  RH WIND       PRES   REMARKS
ELKHART        CLOUDY    36  27  69 NW5       30.25R
GOSHEN         CLOUDY    36  27  69 W8        30.25R
SOUTH BEND     CLOUDY    35  27  72 NW5       30.26R WCI  31
WARSAW +       CLOUDY    36  28  75 NW5       30.26R

$$

INZ006>009-017-018-025>027-030200-
NORTHEAST INDIANA

CITY           SKY/WX    TMP DP  RH WIND       PRES   REMARKS
ANGOLA *+      CLOUDY    36  28  75 NW7       30.22R
FORT WAYNE     CLOUDY    37  32  82 W6        30.26R
KENDALLVILLE + CLOUDY    34  28  80 W5        30.24R WCI  30

$$

INZ028-029-035-036-043>045-051>053-030200-
WEST CENTRAL INDIANA

CITY           SKY/WX    TMP DP  RH WIND       PRES   REMARKS
CRAWFORDSVL +  CLOUDY    36  33  88 SW6       30.30R
GREENCASTLE +  CLOUDY    36  34  93 CALM      30.31R
LAFAYETTE      LGT RAIN  36  33  89 W9        30.30R
TERRE HAUTE    CLOUDY    40  31  70 W7        30.32R

$$

INZ030>032-037>040-046>048-054>057-064-065-030200-
CENTRAL INDIANA

CITY           SKY/WX    TMP DP  RH WIND       PRES   REMARKS
COLUMBUS       CLOUDY    37  36  93 NW7       30.31R
FRANKFORT +    CLOUDY    39  35  83 W7        30.30R
GREENWOOD *+   CLOUDY    39  34  81 W6        30.30R
INDIANAPOLIS   CLOUDY    38  33  82 W9        30.30R
-EAGLE CREEK   CLOUDY    38  34  85 W5        30.29R
KOKOMO +       CLOUDY    38  32  79 W9        30.28R
SHELBYVILLE    CLOUDY    39  33  79 W6        30.29R
ZIONSVILLE +   DRIZZLE   36  32  86 W5        30.29R

$$

INZ033-034-041-042-049-050-058-059-030200-
EAST CENTRAL INDIANA

CITY           SKY/WX    TMP DP  RH WIND       PRES   REMARKS
MUNCIE         CLOUDY    38  31  76 W6        30.27R

$$

INZ060-061-067>069-081>083-085>088-030200-
SOUTHWEST INDIANA

CITY           SKY/WX    TMP DP  RH WIND       PRES   REMARKS
EVANSVILLE     CLOUDY    37  31  78 CALM      30.33S
HUNTINGBURG *+ CLOUDY    41  31  67 N3        30.33R
WASHINGTON +   CLOUDY    39  35  84 NW3       30.33R

$$

INZ062-063-066-070>080-084-089>092-030200-
SOUTH CENTRAL AND SOUTHEAST INDIANA

CITY           SKY/WX    TMP DP  RH WIND       PRES   REMARKS
BLOOMINGTON    CLOUDY    40  30  67 NW9       30.30R
MADISON *+     CLOUDY    39  30  70 CALM      30.32R
SEYMOUR +      CLOUDY    41  32  70 SW3       30.31R

$$




USA.gov is the U.S. government's official web portal to all federal, state and local government web resources and services.